Weather History for Phuket, Thailand

Change the Weather History Date:

Monday, October 7, 2013

  Actual Average Record
Temperature  
Mean Temperature 79 °F -  
Max Temperature 82 °F 87 °F 95 °F (1997)
Min Temperature 76 °F 76 °F 71 °F (1999)
Cooling Degree Days 14    
Growing Degree Days 29 (Base 50)    
Moisture  
Dew Point 72 °F    
Average Humidity 76    
Maximum Humidity 94    
Minimum Humidity 66    
Precipitation  
Precipitation 0.24 in 0.41 in - ()
Sea Level Pressure  
Sea Level Pressure 29.82 in    
Wind  
Wind Speed 15 mph ()    
Max Wind Speed 23 mph    
Max Gust Speed -    
Visibility 4.7 miles    
Events Rain    
Averages and records for this station are not official NWS values.
T = Trace of Precipitation, MM = Missing Value Source: Averaged Metar Reports

Daily Weather History Graph

Daily Weather History Graph

Search for Another Location

Airport:

Trip Planner

Search our weather history database for the weather conditions in past years. The results will help you decide how hot, cold, wet, or windy it might be!

Date:

Astronomy

Oct. 07, 2013 Rise Set
Actual Time 6:14 AM ICT 6:14 PM ICT
Civil Twilight 5:53 AM ICT 6:35 PM ICT
Nautical Twilight 5:29 AM ICT 6:59 PM ICT
Astronomical Twilight 5:04 AM ICT 7:24 PM ICT
Moon 8:00 AM ICT (10/7) 8:08 PM ICT (10/7)
Length of Visible Light 12h 42m
Length of Day
12h 00m
Waxing Crescent, 6% of the Moon is Illuminated
Oct 7
Waxing Crescent
Oct 12
First Quarter
Oct 19
Full
Oct 27
Last Quarter
Nov 3
New

Hourly Weather History & Observations

Time (ICT) Temp. Heat Index Dew Point Humidity Pressure Visibility Wind Dir Wind Speed Gust Speed Precip Events Conditions
12:00 AM 80.6 °F 84.6 °F 71.6 °F 74% 29.83 in 4.3 mi West 17.3 mph - N/A   Mostly Cloudy
12:30 AM 80.6 °F 84.6 °F 71.6 °F 74% 29.83 in 5.0 mi West 16.1 mph - N/A   Mostly Cloudy
1:00 AM 81 °F - 76 °F 80% 29.77 in 6 mi West 4.6 mph - -   Mist
1:30 AM 78.8 °F - 73.4 °F 83% 29.80 in 5.0 mi West 11.5 mph - N/A   Mostly Cloudy
2:00 AM 80.6 °F 84.6 °F 71.6 °F 74% 29.80 in 5.0 mi West 17.3 mph - N/A   Mostly Cloudy
3:00 AM 75.2 °F - 69.8 °F 83% 29.80 in 3.1 mi West 11.5 mph - N/A Rain Rain
4:00 AM 78.8 °F - 71.6 °F 78% 29.77 in - North - - N/A Rain Rain
5:00 AM 77.0 °F - 71.6 °F 83% 29.80 in 4.3 mi West 10.4 mph - N/A   Mostly Cloudy
5:30 AM 78.8 °F - 71.6 °F 78% 29.80 in - North - - N/A   Mostly Cloudy
6:00 AM 73.4 °F - 71.6 °F 94% 29.83 in 3.1 mi West 19.6 mph - N/A Rain Light Rain
6:30 AM 75.2 °F - 71.6 °F 89% 29.83 in 3.1 mi West 20.7 mph - N/A Rain Light Rain
7:00 AM 78 °F - 75 °F 88% 29.81 in 5 mi West 5.8 mph - - Rain Light Rain
7:00 AM 77.0 °F - 71.6 °F 83% 29.83 in 4.3 mi WSW 12.7 mph - N/A   Mostly Cloudy
7:30 AM 78.8 °F - 71.6 °F 78% 29.86 in 5.0 mi West 18.4 mph - N/A   Mostly Cloudy
8:00 AM 78.8 °F - 71.6 °F 78% 29.86 in 4.3 mi West 20.7 mph - N/A   Mostly Cloudy
8:30 AM 80.6 °F 84.6 °F 71.6 °F 74% 29.86 in 4.3 mi West 19.6 mph - N/A   Mostly Cloudy
9:00 AM 80.6 °F 84.6 °F 71.6 °F 74% 29.89 in 4.3 mi West 19.6 mph - N/A   Mostly Cloudy
9:30 AM 80.6 °F 84.6 °F 71.6 °F 74% 29.89 in 4.3 mi West 19.6 mph - N/A   Mostly Cloudy
10:00 AM 78.8 °F - 73.4 °F 83% 29.89 in 3.1 mi WNW 18.4 mph - N/A Rain Rain
10:30 AM 78.8 °F - 71.6 °F 78% 29.89 in 4.3 mi West 15.0 mph - N/A   Overcast
11:00 AM 80.6 °F 85.4 °F 73.4 °F 79% 29.89 in 4.3 mi West 18.4 mph - N/A   Overcast
11:30 AM 80.6 °F 84.6 °F 71.6 °F 74% 29.86 in 4.3 mi West 19.6 mph - N/A   Overcast
12:00 PM 80.6 °F 84.6 °F 71.6 °F 74% 29.86 in 4.3 mi West 19.6 mph - N/A   Overcast
12:30 PM 80.6 °F 84.6 °F 71.6 °F 74% 29.86 in 4.3 mi West 20.7 mph - N/A   Mostly Cloudy
1:00 PM 81 °F - 73 °F 70% 29.82 in 6 mi West 9.2 mph - -   Mist
1:00 PM 80.6 °F 84.6 °F 71.6 °F 74% 29.83 in 5.0 mi West 19.6 mph - N/A   Mostly Cloudy
1:30 PM 84.2 °F 89.6 °F 71.6 °F 66% 29.83 in 5.0 mi West 19.6 mph - N/A   Mostly Cloudy
2:00 PM 82.4 °F 86.3 °F 69.8 °F 66% 29.80 in 5.0 mi WSW 18.4 mph - N/A   Mostly Cloudy
2:30 PM 82.4 °F 86.3 °F 69.8 °F 66% 29.80 in 5.0 mi West 19.6 mph - N/A   Mostly Cloudy
3:00 PM 84.2 °F 89.6 °F 71.6 °F 66% 29.77 in 5.0 mi West 23.0 mph - N/A   Mostly Cloudy
3:30 PM 84.2 °F 89.6 °F 71.6 °F 66% 29.77 in 5.0 mi West 21.9 mph - N/A   Mostly Cloudy
4:00 PM 82.4 °F 87.2 °F 71.6 °F 70% 29.77 in 5.0 mi West 19.6 mph - N/A   Mostly Cloudy
4:30 PM 82.4 °F 88.2 °F 73.4 °F 74% 29.77 in 5.0 mi West 19.6 mph - N/A   Mostly Cloudy
5:00 PM 82.4 °F 87.2 °F 71.6 °F 70% 29.77 in 5.0 mi West 19.6 mph - N/A   Mostly Cloudy
5:30 PM 80.6 °F 85.4 °F 73.4 °F 79% 29.77 in 4.3 mi West 18.4 mph - N/A   Mostly Cloudy
6:00 PM 80.6 °F 85.4 °F 73.4 °F 79% 29.77 in 4.3 mi West 16.1 mph - N/A   Mostly Cloudy
6:30 PM 80.6 °F 84.6 °F 71.6 °F 74% 29.80 in 4.3 mi West 17.3 mph - N/A   Mostly Cloudy
7:00 PM 81 °F - 73 °F 70% 29.77 in 5 mi WNW 8.1 mph - -   Mist
7:00 PM 80.6 °F 84.6 °F 71.6 °F 74% 29.80 in 5.0 mi West 18.4 mph - N/A   Mostly Cloudy
7:30 PM 80.6 °F 85.4 °F 73.4 °F 79% 29.83 in 5.0 mi West 17.3 mph - N/A   Mostly Cloudy
8:00 PM 80.6 °F 84.6 °F 71.6 °F 74% 29.83 in 5.0 mi West 16.1 mph - N/A   Mostly Cloudy
8:30 PM 80.6 °F 84.6 °F 71.6 °F 74% 29.83 in 5.0 mi West 18.4 mph - N/A   Mostly Cloudy
9:00 PM 80.6 °F 84.6 °F 71.6 °F 74% 29.86 in 5.0 mi West 17.3 mph - N/A   Mostly Cloudy
9:30 PM 80.6 °F 84.6 °F 71.6 °F 74% 29.86 in 5.0 mi West 15.0 mph - N/A   Mostly Cloudy
10:00 PM 80.6 °F 84.6 °F 71.6 °F 74% 29.86 in 5.0 mi West 12.7 mph - N/A   Mostly Cloudy
10:30 PM 80.6 °F 84.6 °F 71.6 °F 74% 29.86 in 5.0 mi West 11.5 mph - N/A   Mostly Cloudy
11:00 PM 80.6 °F 84.6 °F 71.6 °F 74% 29.86 in 5.0 mi WSW 8.1 mph - N/A   Mostly Cloudy
11:30 PM 80.6 °F 85.4 °F 73.4 °F 79% 29.86 in 5.0 mi West 9.2 mph - N/A   Mostly Cloudy